, NV

(GMT )
Eureka Airport

Weather History for K05U - May, 2013

Change the Weather History Date:

Tuesday, May 14, 2013

  Actual Average Record
Temperature  
Mean Temperature 64 °F -  
Max Temperature 86 °F - - ()
Min Temperature 41 °F - - ()
Degree Days  
Heating Degree Days 2    
Growing Degree Days 14 (Base 50)    
Moisture  
Dew Point 28 °F    
Average Humidity 33    
Maximum Humidity 70    
Minimum Humidity 9    
Precipitation  
Precipitation 0.00 in - - ()
Sea Level Pressure  
Sea Level Pressure 30.10 in    
Wind  
Wind Speed 5 mph (South)    
Max Wind Speed 22 mph    
Max Gust Speed 45 mph    
Visibility 10 miles    
Events      
Averages and records for this station are not official NWS values.
T = Trace of Precipitation, MM = Missing Value Source: NWS Daily Summary

Daily Weather History Graph

Daily Weather History Graph

Search for Another Location

Airport or City:

Trip Planner

Search our weather history database for the weather conditions in past years. The results will help you decide how hot, cold, wet, or windy it might be!

Date:

Astronomy

May. 14, 2013 Rise Set
Actual Time 5:30 AM PDT 7:50 PM PDT
Civil Twilight 5:00 AM PDT 8:21 PM PDT
Nautical Twilight 4:22 AM PDT 8:58 PM PDT
Astronomical Twilight 3:41 AM PDT 9:40 PM PDT
Moon 9:14 AM PDT (5/14) 11:40 PM PDT (5/14)
Length of Visible Light 15h 21m
Length of Day
14h 20m
Waxing Crescent, 19% of the Moon is Illuminated
May 14
Waxing Crescent
May 17
First Quarter
May 24
Full
May 31
Last Quarter
Jun 8
New

Hourly Weather History & Observations

Time (PDT) Temp. Windchill Dew Point Humidity Pressure Visibility Wind Dir Wind Speed Gust Speed Precip Events Conditions
12:10 AM 50.0 °F - 32.0 °F 50% 30.17 in 10.0 mi SSE 5.8 mph - N/A   Clear
12:30 AM 50.0 °F - 32.0 °F 50% 30.17 in 10.0 mi South 5.8 mph - N/A   Partly Cloudy
12:50 AM 55.4 °F - 30.2 °F 38% 30.17 in 10.0 mi SSE 4.6 mph - N/A   Clear
1:10 AM 53.6 °F - 32.0 °F 44% 30.16 in 10.0 mi South 6.9 mph - N/A   Clear
1:30 AM 48.2 °F - 33.8 °F 58% 30.17 in 10.0 mi Calm Calm - N/A   Clear
1:50 AM 46.4 °F - 30.2 °F 53% 30.17 in 10.0 mi Calm Calm - N/A   Clear
2:10 AM 44.6 °F - 28.4 °F 53% 30.18 in 10.0 mi Calm Calm - N/A   Clear
2:30 AM 44.6 °F 43.1 °F 28.4 °F 53% 30.18 in 10.0 mi SW 3.5 mph - N/A   Clear
2:50 AM 46.4 °F 44.3 °F 32.0 °F 57% 30.18 in 10.0 mi South 4.6 mph - N/A   Clear
3:10 AM 44.6 °F - 32.0 °F 61% 30.17 in 10.0 mi Calm Calm - N/A   Clear
3:30 AM 42.8 °F - 28.4 °F 57% 30.17 in 10.0 mi Calm Calm - N/A   Clear
3:50 AM 41.0 °F - 28.4 °F 61% 30.18 in 10.0 mi Calm Calm - N/A   Clear
4:10 AM 44.6 °F 42.2 °F 28.4 °F 53% 30.18 in 10.0 mi South 4.6 mph - N/A   Clear
4:30 AM 44.6 °F 41.4 °F 28.4 °F 53% 30.18 in 10.0 mi South 5.8 mph - N/A   Clear
4:50 AM 42.8 °F 39.3 °F 28.4 °F 57% 30.17 in 10.0 mi South 5.8 mph - N/A   Clear
5:10 AM 41.0 °F - 32.0 °F 70% 30.18 in 10.0 mi Calm Calm - N/A   Clear
5:30 AM 41.0 °F - 28.4 °F 61% 30.18 in 10.0 mi Calm Calm - N/A   Clear
5:50 AM 42.8 °F 39.3 °F 28.4 °F 57% 30.18 in 10.0 mi SSW 5.8 mph - N/A   Clear
6:10 AM 44.6 °F - 30.2 °F 57% 30.19 in 10.0 mi Calm Calm - N/A   Clear
6:30 AM 46.4 °F - 32.0 °F 57% 30.19 in 10.0 mi Calm Calm - N/A   Clear
6:50 AM 51.8 °F - 32.0 °F 47% 30.19 in 10.0 mi Calm Calm - N/A   Clear
7:10 AM 55.4 °F - 33.8 °F 44% 30.19 in 10.0 mi Calm Calm - N/A   Clear
7:30 AM 60.8 °F - 32.0 °F 34% 30.19 in 10.0 mi Calm Calm - N/A   Clear
7:50 AM 64.4 °F - 28.4 °F 26% 30.19 in 10.0 mi Calm Calm - N/A   Clear
8:10 AM 64.4 °F - 26.6 °F 24% 30.19 in 10.0 mi Calm Calm - N/A   Clear
8:30 AM 66.2 °F - 28.4 °F 24% 30.19 in 10.0 mi North 5.8 mph - N/A   Clear
8:50 AM 68.0 °F - 28.4 °F 23% 30.19 in 10.0 mi NE 4.6 mph - N/A   Clear
9:10 AM 68.0 °F - 26.6 °F 21% 30.18 in 10.0 mi Calm Calm - N/A   Clear
9:30 AM 71.6 °F - 26.6 °F 19% 30.17 in 10.0 mi NNW 5.8 mph - N/A   Clear
9:50 AM 71.6 °F - 28.4 °F 20% 30.17 in 10.0 mi Calm Calm - N/A   Clear
10:10 AM 71.6 °F - 28.4 °F 20% 30.16 in 10.0 mi NW 5.8 mph - N/A   Clear
10:30 AM 73.4 °F - 30.2 °F 20% 30.15 in 10.0 mi ENE 3.5 mph - N/A   Clear
10:50 AM 73.4 °F - 28.4 °F 19% 30.15 in 10.0 mi NNE 5.8 mph - N/A   Clear
11:10 AM 75.2 °F - 30.2 °F 19% 30.14 in 10.0 mi NNE 6.9 mph - N/A   Clear
11:30 AM 77.0 °F - 30.2 °F 18% 30.13 in 10.0 mi East 4.6 mph - N/A   Clear
11:50 AM 77.0 °F - 28.4 °F 17% 30.11 in 10.0 mi East 6.9 mph - N/A   Clear
12:10 PM 77.0 °F - 28.4 °F 17% 30.10 in 10.0 mi Calm Calm - N/A   Clear
12:30 PM 77.0 °F - 26.6 °F 16% 30.09 in 10.0 mi West 5.8 mph - N/A   Clear
12:50 PM 80.6 °F - 26.6 °F 14% 30.07 in 10.0 mi East 10.4 mph - N/A   Clear
1:10 PM 80.6 °F - 26.6 °F 14% 30.06 in 10.0 mi SW 8.1 mph - N/A   Partly Cloudy
1:30 PM 84.2 °F - 24.8 °F 11% 30.05 in 10.0 mi South 13.8 mph 23.0 mph N/A   Partly Cloudy
1:50 PM 84.2 °F - 24.8 °F 11% 30.04 in 10.0 mi SSE 15.0 mph - N/A   Clear
2:10 PM 84.2 °F - 24.8 °F 11% 30.03 in 10.0 mi ESE 8.1 mph - N/A   Partly Cloudy
2:30 PM 82.4 °F - 24.8 °F 12% 30.01 in 10.0 mi SE 16.1 mph 20.7 mph N/A   Partly Cloudy
2:50 PM 82.4 °F - 24.8 °F 12% 30.00 in 10.0 mi SSE 11.5 mph 16.1 mph N/A   Partly Cloudy
3:10 PM 84.2 °F - 24.8 °F 11% 29.99 in 10.0 mi East 9.2 mph - N/A   Clear
3:30 PM 84.2 °F - 23.0 °F 11% 29.98 in 10.0 mi SE 4.6 mph 16.1 mph N/A   Clear
3:50 PM 86.0 °F - 21.2 °F 9% 29.97 in 10.0 mi South 18.4 mph 24.2 mph N/A   Clear
4:10 PM 82.4 °F - 21.2 °F 10% 29.96 in 10.0 mi South 20.7 mph 26.5 mph N/A   Clear
4:30 PM 82.4 °F - 21.2 °F 10% 29.97 in 10.0 mi SSW 13.8 mph 21.9 mph N/A   Clear
4:50 PM 80.6 °F - 19.4 °F 10% 29.97 in 10.0 mi South 10.4 mph 28.8 mph N/A   Clear
5:10 PM 77.0 °F - 23.0 °F 13% 29.97 in 10.0 mi SW 11.5 mph 17.3 mph N/A   Clear
5:30 PM 77.0 °F - 21.2 °F 12% 29.98 in 5.0 mi SSW 13.8 mph 44.9 mph N/A   Partly Cloudy
5:50 PM 77.0 °F - 19.4 °F 12% 29.96 in 10.0 mi West 9.2 mph 20.7 mph N/A   Clear
6:10 PM 75.2 °F - 21.2 °F 13% 29.98 in 10.0 mi West 12.7 mph 32.2 mph N/A   Scattered Clouds
6:30 PM 75.2 °F - 23.0 °F 14% 29.97 in 10.0 mi SW 21.9 mph 33.4 mph N/A   Overcast
6:50 PM 75.2 °F - 23.0 °F 14% 29.96 in 10.0 mi NW 9.2 mph - N/A   Scattered Clouds
7:10 PM 73.4 °F - 26.6 °F 18% 29.97 in 10.0 mi NW 15.0 mph 21.9 mph N/A   Clear
7:30 PM 71.6 °F - 32.0 °F 23% 30.01 in 10.0 mi NW 16.1 mph 31.1 mph N/A   Scattered Clouds
7:50 PM 68.0 °F - 32.0 °F 26% 30.03 in 10.0 mi NNW 20.7 mph 31.1 mph N/A   Overcast
8:10 PM 66.2 °F - 33.8 °F 30% 30.04 in 10.0 mi North 10.4 mph 21.9 mph N/A   Overcast
8:30 PM 64.4 °F - 32.0 °F 30% 30.05 in 10.0 mi NW 8.1 mph - N/A   Scattered Clouds
9:10 PM 59.0 °F - 35.6 °F 42% 30.08 in 10.0 mi SE 11.5 mph - N/A   Clear
9:30 PM 57.2 °F - 33.8 °F 41% 30.09 in 10.0 mi South 4.6 mph - N/A   Clear
9:50 PM 57.2 °F - 33.8 °F 41% 30.09 in 10.0 mi South 4.6 mph - N/A   Clear
10:10 PM 53.6 °F - 35.6 °F 51% 30.09 in 10.0 mi Calm Calm - N/A   Clear
10:30 PM 50.0 °F - 32.0 °F 50% 30.08 in 10.0 mi SE 6.9 mph - N/A   Clear
10:50 PM 50.0 °F - 32.0 °F 50% 30.08 in 10.0 mi SW 3.5 mph - N/A   Clear
11:10 PM 48.2 °F - 32.0 °F 54% 30.09 in 10.0 mi SSW 4.6 mph - N/A   Clear
11:30 PM 48.2 °F - 32.0 °F 54% 30.09 in 10.0 mi South 5.8 mph - N/A   Clear
11:50 PM 50.0 °F - 32.0 °F 50% 30.08 in 10.0 mi SSW 8.1 mph - N/A   Clear